SWR4566 LSZH-LFPG

Flight info

Callsign SWR4566
Flight time 0h 54m
Altitude 31000
Route VEBIT T10 LUMEL T14 MOROK DCT PENDU DCT JAVVU DCT GIVRI/N0408F320 DCT TINIL
Aircraft A20N/M-SDE2E3FGHIRWXY/LB1

Departure

Time 2026-05-05 20:20
Airport Zürich Airport (LSZH)

Arrival

Time 2026-05-05 21:14
Airport Charles de Gaulle International Airport (LFPG)
Time Latitude Longitude Altitude Speed Heading
2026-05-05 20:04 47.46042 8.55738 1397 ft 0 kts
2026-05-05 20:09 47.46001 8.55716 1403 ft 8 kts 59°
2026-05-05 20:09 47.45997 8.55691 1407 ft 0 kts 100°
2026-05-05 20:12 47.45997 8.55692 1407 ft 0 kts 101°
2026-05-05 20:12 47.45993 8.55709 1407 ft 5 kts 111°
2026-05-05 20:12 47.45963 8.55803 1402 ft 14 kts 115°
2026-05-05 20:13 47.45953 8.55950 1406 ft 16 kts 66°
2026-05-05 20:13 47.45966 8.56128 1406 ft 20 kts 96°
2026-05-05 20:13 47.45962 8.56182 1406 ft 4 kts 98°
2026-05-05 20:13 47.45961 8.56191 1404 ft 0 kts 97°
2026-05-05 20:14 47.45960 8.56196 1407 ft 0 kts 97°
2026-05-05 20:14 47.45959 8.56217 1402 ft 5 kts 97°
2026-05-05 20:14 47.45968 8.56289 1406 ft 0 kts 52°
2026-05-05 20:15 47.45969 8.56291 1405 ft 2 kts 52°
2026-05-05 20:15 47.45979 8.56304 1407 ft 0 kts 37°
2026-05-05 20:16 47.45984 8.56308 1404 ft 0 kts 33°
2026-05-05 20:16 47.45989 8.56312 1404 ft 3 kts 30°
2026-05-05 20:16 47.46021 8.56325 1406 ft 0 kts
2026-05-05 20:17 47.46023 8.56325 1404 ft 0 kts
2026-05-05 20:18 47.46025 8.56325 1404 ft 0 kts
2026-05-05 20:19 47.46054 8.56332 1405 ft 11 kts
2026-05-05 20:19 47.46168 8.56352 1398 ft 17 kts 355°
2026-05-05 20:19 47.46218 8.56315 1405 ft 1 kts 321°
2026-05-05 20:19 47.46340 8.56153 1401 ft 76 kts 316°
2026-05-05 20:20 47.46990 8.55256 1494 ft 165 kts 317°
2026-05-05 20:20 47.47915 8.54041 2365 ft 190 kts 316°
2026-05-05 20:20 47.48959 8.52640 3437 ft 210 kts 314°
2026-05-05 20:20 47.50080 8.51187 4299 ft 218 kts 319°
2026-05-05 20:21 47.51370 8.50013 4707 ft 222 kts 326°
2026-05-05 20:21 47.52651 8.48774 4915 ft 217 kts 307°
2026-05-05 20:21 47.53332 8.46836 5039 ft 220 kts 278°
2026-05-05 20:21 47.53330 8.44445 5705 ft 245 kts 258°
2026-05-05 20:22 47.52862 8.41983 6737 ft 264 kts 249°
2026-05-05 20:22 47.51874 8.39565 7563 ft 290 kts 227°
2026-05-05 20:22 47.50135 8.37821 8366 ft 317 kts 205°
2026-05-05 20:22 47.47921 8.36893 8980 ft 346 kts 193°
2026-05-05 20:23 47.45483 8.36110 9533 ft 369 kts 199°
2026-05-05 20:23 47.43173 8.34313 10228 ft 382 kts 217°
2026-05-05 20:23 47.41336 8.31513 11485 ft 379 kts 233°
2026-05-05 20:23 47.40077 8.28058 12413 ft 388 kts 248°
2026-05-05 20:24 47.39490 8.24128 13308 ft 398 kts 263°
2026-05-05 20:24 47.39613 8.20034 14119 ft 409 kts 276°
2026-05-05 20:24 47.40151 8.15870 14936 ft 415 kts 278°
2026-05-05 20:24 47.40614 8.11656 15740 ft 419 kts 275°
2026-05-05 20:25 47.40888 8.07341 16528 ft 424 kts 271°
2026-05-05 20:25 47.41008 8.03072 17301 ft 428 kts 269°
2026-05-05 20:25 47.41047 7.98650 18032 ft 434 kts 268°
2026-05-05 20:25 47.41045 7.94151 18708 ft 438 kts 268°
2026-05-05 20:26 47.41031 7.89623 19358 ft 443 kts 268°
2026-05-05 20:26 47.41017 7.85053 19956 ft 447 kts 267°
2026-05-05 20:26 47.41006 7.80509 20169 ft 449 kts 267°
2026-05-05 20:26 47.40997 7.75899 19984 ft 448 kts 267°
2026-05-05 20:27 47.40989 7.72322 19981 ft 449 kts 267°
2026-05-05 20:27 47.40979 7.67710 19979 ft 449 kts 267°
2026-05-05 20:27 47.40967 7.63100 19978 ft 449 kts 267°
2026-05-05 20:27 47.40952 7.58491 19976 ft 449 kts 267°
2026-05-05 20:28 47.40936 7.53873 20029 ft 452 kts 267°
2026-05-05 20:28 47.40917 7.49199 20705 ft 454 kts 267°
2026-05-05 20:28 47.40911 7.47714 20971 ft 454 kts 267°
2026-05-05 20:28 47.40890 7.43033 21613 ft 458 kts 267°
2026-05-05 20:29 47.40867 7.38283 22209 ft 463 kts 266°
2026-05-05 20:29 47.40842 7.33512 22785 ft 467 kts 266°
2026-05-05 20:29 47.40815 7.28694 23330 ft 471 kts 266°
2026-05-05 20:29 47.40789 7.23837 23783 ft 474 kts 266°
2026-05-05 20:30 47.40760 7.18954 24181 ft 475 kts 266°
2026-05-05 20:30 47.40725 7.14125 24488 ft 477 kts 266°
2026-05-05 20:30 47.40644 7.09236 24795 ft 477 kts 265°
2026-05-05 20:30 47.40531 7.04343 25147 ft 477 kts 265°
2026-05-05 20:31 47.40415 6.99458 25518 ft 475 kts 266°
2026-05-05 20:31 47.40659 6.94578 25892 ft 479 kts 275°
2026-05-05 20:31 47.41176 6.89724 26274 ft 478 kts 275°
2026-05-05 20:31 47.41697 6.84879 26655 ft 476 kts 275°
2026-05-05 20:32 47.42173 6.80439 26975 ft 476 kts 275°
2026-05-05 20:32 47.42593 6.76499 27295 ft 474 kts 275°
2026-05-05 20:32 47.43095 6.71754 27695 ft 472 kts 275°
2026-05-05 20:32 47.43586 6.67076 28065 ft 471 kts 275°
2026-05-05 20:33 47.44081 6.62334 28396 ft 472 kts 275°
2026-05-05 20:33 47.44578 6.57541 28765 ft 471 kts 275°
2026-05-05 20:33 47.45072 6.52772 29148 ft 469 kts 275°
2026-05-05 20:33 47.45564 6.47997 29506 ft 468 kts 275°
2026-05-05 20:34 47.46051 6.43244 29895 ft 468 kts 274°
2026-05-05 20:34 47.46536 6.38493 30242 ft 467 kts 275°
2026-05-05 20:34 47.47017 6.33761 30586 ft 466 kts 275°
2026-05-05 20:34 47.47497 6.29022 30931 ft 465 kts 275°
2026-05-05 20:35 47.47761 6.24296 30985 ft 459 kts 265°
2026-05-05 20:35 47.47378 6.19646 30967 ft 453 kts 253°
2026-05-05 20:35 47.46355 6.15285 30965 ft 447 kts 242°
2026-05-05 20:35 47.44771 6.11421 30967 ft 443 kts 230°
2026-05-05 20:36 47.42869 6.08165 30968 ft 441 kts 225°
2026-05-05 20:36 47.38683 6.01590 30968 ft 439 kts 225°
2026-05-05 20:37 47.34645 5.94897 30966 ft 440 kts 227°
2026-05-05 20:37 47.30655 5.88045 30967 ft 440 kts 230°
2026-05-05 20:37 47.29018 5.84205 30969 ft 444 kts 241°
2026-05-05 20:38 47.27974 5.79900 30991 ft 450 kts 253°
2026-05-05 20:38 47.27570 5.75318 30966 ft 455 kts 265°
2026-05-05 20:38 47.27839 5.70645 30967 ft 461 kts 277°
2026-05-05 20:38 47.28778 5.66097 30966 ft 468 kts 289°
2026-05-05 20:39 47.30356 5.61862 30968 ft 475 kts 301°
2026-05-05 20:39 47.34529 5.55296 30969 ft 483 kts 313°
2026-05-05 20:40 47.39422 5.48493 30969 ft 483 kts 313°
2026-05-05 20:40 47.43920 5.42231 30965 ft 483 kts 313°
2026-05-05 20:41 47.48734 5.35367 30967 ft 479 kts 313°
2026-05-05 20:41 47.53479 5.28419 30963 ft 479 kts 313°
2026-05-05 20:42 47.58210 5.21480 30849 ft 476 kts 313°
2026-05-05 20:42 47.60543 5.18058 30386 ft 470 kts 313°
2026-05-05 20:42 47.62821 5.14715 29647 ft 464 kts 313°
2026-05-05 20:42 47.65104 5.11366 28747 ft 458 kts 313°
2026-05-05 20:43 47.67363 5.08066 27861 ft 453 kts 313°
2026-05-05 20:43 47.69598 5.04811 26994 ft 447 kts 313°
2026-05-05 20:43 47.71781 5.01569 26175 ft 441 kts 313°
2026-05-05 20:43 47.73931 4.98345 25364 ft 435 kts 312°
2026-05-05 20:44 47.76055 4.95167 24575 ft 430 kts 312°
2026-05-05 20:44 47.78158 4.92032 23803 ft 425 kts 312°
2026-05-05 20:44 47.80240 4.88937 22975 ft 420 kts 313°
2026-05-05 20:44 47.82296 4.85881 22127 ft 415 kts 312°
2026-05-05 20:45 47.86326 4.79880 20476 ft 405 kts 312°
2026-05-05 20:45 47.88306 4.76925 19672 ft 400 kts 312°
2026-05-05 20:45 47.90262 4.74002 18900 ft 396 kts 312°
2026-05-05 20:46 47.92170 4.71145 18157 ft 391 kts 312°
2026-05-05 20:46 47.94085 4.68289 17352 ft 386 kts 312°
2026-05-05 20:46 47.95975 4.65476 16572 ft 381 kts 312°
2026-05-05 20:46 47.97221 4.63636 16034 ft 379 kts 313°
2026-05-05 20:47 47.99156 4.61025 15555 ft 368 kts 317°
2026-05-05 20:47 48.01071 4.58639 15360 ft 349 kts 317°
2026-05-05 20:47 48.02905 4.56367 15076 ft 336 kts 317°
2026-05-05 20:47 48.04706 4.54139 14962 ft 340 kts 317°
2026-05-05 20:48 48.06578 4.51811 14932 ft 369 kts 317°
2026-05-05 20:48 48.08646 4.49214 14935 ft 405 kts 317°
2026-05-05 20:48 48.10878 4.46389 14933 ft 435 kts 317°
2026-05-05 20:48 48.13249 4.43373 14932 ft 453 kts 317°
2026-05-05 20:49 48.15612 4.40375 15028 ft 445 kts 317°
2026-05-05 20:49 48.17951 4.37408 15858 ft 429 kts 317°
2026-05-05 20:49 48.20147 4.34635 15869 ft 399 kts 317°
2026-05-05 20:49 48.22219 4.32034 15644 ft 378 kts 317°
2026-05-05 20:50 48.24193 4.29563 15243 ft 364 kts 317°
2026-05-05 20:50 48.26043 4.27040 14991 ft 359 kts 307°
2026-05-05 20:50 48.27395 4.23908 14892 ft 357 kts 298°
2026-05-05 20:50 48.28674 4.20707 14912 ft 357 kts 298°
2026-05-05 20:51 48.29977 4.17543 14916 ft 358 kts 302°
2026-05-05 20:51 48.31502 4.14570 14917 ft 359 kts 307°
2026-05-05 20:51 48.33126 4.11700 14907 ft 360 kts 308°
2026-05-05 20:51 48.34752 4.08842 14908 ft 360 kts 307°
2026-05-05 20:52 48.36358 4.05962 14910 ft 360 kts 307°
2026-05-05 20:52 48.37929 4.03085 14909 ft 360 kts 307°
2026-05-05 20:52 48.39504 4.00168 14909 ft 360 kts 306°
2026-05-05 20:52 48.41079 3.97234 14908 ft 360 kts 306°
2026-05-05 20:53 48.42646 3.94305 14905 ft 360 kts 306°
2026-05-05 20:53 48.44214 3.91370 14905 ft 359 kts 306°
2026-05-05 20:53 48.45780 3.88437 14905 ft 359 kts 306°
2026-05-05 20:53 48.47347 3.85498 14906 ft 359 kts 306°
2026-05-05 20:54 48.48911 3.82563 14906 ft 359 kts 306°
2026-05-05 20:54 48.50477 3.79622 14900 ft 359 kts 306°
2026-05-05 20:54 48.52042 3.76679 14899 ft 360 kts 306°
2026-05-05 20:54 48.53603 3.73731 14899 ft 359 kts 305°
2026-05-05 20:55 48.55005 3.70613 14899 ft 358 kts 300°
2026-05-05 20:55 48.56355 3.67459 14898 ft 358 kts 300°
2026-05-05 20:55 48.57713 3.64303 14900 ft 358 kts 301°
2026-05-05 20:55 48.59053 3.61193 14897 ft 358 kts 301°
2026-05-05 20:56 48.60429 3.57988 14895 ft 361 kts 301°
2026-05-05 20:56 48.61794 3.54806 14894 ft 361 kts 301°
2026-05-05 20:56 48.63158 3.51623 14894 ft 361 kts 301°
2026-05-05 20:56 48.64505 3.48478 14893 ft 361 kts 301°
2026-05-05 20:57 48.65866 3.45291 14900 ft 362 kts 301°
2026-05-05 20:57 48.67230 3.42095 14897 ft 361 kts 301°
2026-05-05 20:57 48.68596 3.38894 14897 ft 362 kts 301°
2026-05-05 20:57 48.69960 3.35691 14894 ft 362 kts 301°
2026-05-05 20:58 48.71323 3.32488 14894 ft 361 kts 301°
2026-05-05 20:58 48.72683 3.29287 14896 ft 361 kts 301°
2026-05-05 20:58 48.74040 3.26090 14897 ft 361 kts 301°
2026-05-05 20:58 48.75403 3.22874 14897 ft 361 kts 301°
2026-05-05 20:59 48.76762 3.19665 14898 ft 361 kts 301°
2026-05-05 20:59 48.78119 3.16454 14897 ft 361 kts 301°
2026-05-05 20:59 48.79459 3.13280 14903 ft 361 kts 301°
2026-05-05 20:59 48.80816 3.10064 14902 ft 361 kts 301°
2026-05-05 21:00 48.82169 3.06852 14903 ft 361 kts 301°
2026-05-05 21:00 48.83518 3.03644 14909 ft 359 kts 301°
2026-05-05 21:00 48.84967 3.00571 14904 ft 360 kts 308°
2026-05-05 21:00 48.86654 2.97753 14907 ft 360 kts 311°
2026-05-05 21:01 48.88352 2.94952 14907 ft 360 kts 311°
2026-05-05 21:01 48.90045 2.92145 14910 ft 360 kts 311°
2026-05-05 21:01 48.91735 2.89323 14909 ft 360 kts 309°
2026-05-05 21:01 48.93037 2.86108 14911 ft 357 kts 290°
2026-05-05 21:02 48.93565 2.82475 14739 ft 350 kts 271°
2026-05-05 21:02 48.93450 2.78782 14256 ft 348 kts 264°
2026-05-05 21:02 48.93245 2.75127 13625 ft 345 kts 264°
2026-05-05 21:02 48.93035 2.71517 12905 ft 342 kts 264°
2026-05-05 21:03 48.92834 2.67985 12268 ft 337 kts 264°
2026-05-05 21:03 48.92637 2.64453 11522 ft 335 kts 264°
2026-05-05 21:03 48.92443 2.60937 11116 ft 335 kts 265°
2026-05-05 21:03 48.92246 2.57350 10978 ft 342 kts 265°
2026-05-05 21:04 48.92051 2.53759 10946 ft 340 kts 265°
2026-05-05 21:04 48.91856 2.50167 10946 ft 341 kts 265°
2026-05-05 21:04 48.91659 2.46578 10946 ft 341 kts 265°
2026-05-05 21:04 48.91461 2.42990 10916 ft 339 kts 265°
2026-05-05 21:05 48.91263 2.39430 10550 ft 337 kts 265°
2026-05-05 21:05 48.91065 2.35896 9955 ft 334 kts 265°
2026-05-05 21:05 48.90864 2.32374 9224 ft 333 kts 266°
2026-05-05 21:05 48.90666 2.28892 8534 ft 329 kts 266°
2026-05-05 21:06 48.90470 2.25430 7839 ft 327 kts 266°
2026-05-05 21:06 48.90277 2.22016 7253 ft 321 kts 266°
2026-05-05 21:06 48.90087 2.18717 7033 ft 305 kts 266°
2026-05-05 21:06 48.89901 2.15587 6859 ft 290 kts 266°
2026-05-05 21:07 48.89735 2.12657 6732 ft 274 kts 271°
2026-05-05 21:07 48.90090 2.09917 6596 ft 253 kts 299°
2026-05-05 21:07 48.91154 2.07986 6465 ft 235 kts 329°
2026-05-05 21:07 48.92647 2.07170 6134 ft 228 kts 359°
2026-05-05 21:08 48.94157 2.07694 5798 ft 224 kts 30°
2026-05-05 21:08 48.95223 2.09371 5486 ft 224 kts 59°
2026-05-05 21:08 48.95921 2.11495 5145 ft 224 kts 64°
2026-05-05 21:08 48.96286 2.13794 5023 ft 229 kts 78°
2026-05-05 21:09 48.96583 2.16161 4999 ft 226 kts 75°
2026-05-05 21:09 48.96994 2.18473 4998 ft 226 kts 72°
2026-05-05 21:09 48.97313 2.20765 4951 ft 218 kts 78°
2026-05-05 21:09 48.97497 2.23039 4745 ft 217 kts 83°
2026-05-05 21:10 48.97615 2.25340 4447 ft 219 kts 82°
2026-05-05 21:10 48.97740 2.27616 4146 ft 218 kts 82°
2026-05-05 21:10 48.97861 2.29911 3845 ft 217 kts 82°
2026-05-05 21:10 48.97990 2.32197 3554 ft 217 kts 81°
2026-05-05 21:11 48.98107 2.34482 3264 ft 216 kts 82°
2026-05-05 21:11 48.98229 2.36751 2977 ft 215 kts 81°
2026-05-05 21:11 48.98351 2.39018 2678 ft 215 kts 81°
2026-05-05 21:11 48.98471 2.41285 2388 ft 214 kts 80°
2026-05-05 21:12 48.98593 2.43551 2100 ft 215 kts 81°
2026-05-05 21:12 48.98715 2.45823 1803 ft 214 kts 81°
2026-05-05 21:12 48.98830 2.48012 1514 ft 198 kts 79°
2026-05-05 21:12 48.98936 2.49994 1285 ft 175 kts 80°
2026-05-05 21:13 48.99029 2.51737 1018 ft 156 kts 81°
2026-05-05 21:13 48.99114 2.53315 814 ft 149 kts 79°
2026-05-05 21:13 48.99206 2.54880 603 ft 147 kts 81°
2026-05-05 21:13 48.99273 2.56374 431 ft 137 kts 82°
2026-05-05 21:14 48.99351 2.57804 368 ft 133 kts 81°
2026-05-05 21:14 48.99420 2.58789 351 ft 37 kts 85°
2026-05-05 21:14 48.99433 2.59020 354 ft 20 kts 84°
2026-05-05 21:14 48.99470 2.59234 354 ft 20 kts 61°
2026-05-05 21:15 48.99513 2.59408 357 ft 17 kts 68°
2026-05-05 21:15 48.99565 2.59573 358 ft 17 kts 64°
2026-05-05 21:15 48.99643 2.59694 361 ft 15 kts
2026-05-05 21:15 48.99737 2.59682 354 ft 13 kts 353°
2026-05-05 21:16 48.99834 2.59668 356 ft 14 kts 355°
2026-05-05 21:16 48.99911 2.59658 362 ft 0 kts 355°
2026-05-05 21:16 48.99913 2.59658 361 ft 2 kts 355°
2026-05-05 21:16 48.99916 2.59658 361 ft 0 kts 355°
2026-05-05 21:17 48.99920 2.59657 358 ft 2 kts 355°
2026-05-05 21:17 48.99942 2.59648 355 ft 7 kts 338°
2026-05-05 21:17 48.99984 2.59508 358 ft 18 kts 268°
2026-05-05 21:17 48.99974 2.59297 361 ft 21 kts 266°
2026-05-05 21:18 48.99961 2.59067 356 ft 22 kts 264°
2026-05-05 21:18 48.99949 2.58825 360 ft 23 kts 266°
2026-05-05 21:18 48.99936 2.58575 354 ft 24 kts 265°
2026-05-05 21:18 48.99930 2.58323 354 ft 18 kts 289°
2026-05-05 21:19 48.99954 2.58296 356 ft 4 kts 335°
2026-05-05 21:19 48.99964 2.58289 356 ft 0 kts 335°
2026-05-05 21:19 48.99976 2.58288 356 ft 4 kts
2026-05-05 21:19 49.00020 2.58308 354 ft 9 kts 18°
2026-05-05 21:20 49.00075 2.58300 362 ft 8 kts 317°
2026-05-05 21:20 49.00087 2.58222 356 ft 9 kts 269°
2026-05-05 21:20 49.00084 2.58150 357 ft 0 kts 263°
2026-05-05 21:21 49.00083 2.58141 358 ft 3 kts 264°
2026-05-05 21:21 49.00079 2.58060 354 ft 10 kts 270°
2026-05-05 21:21 49.00099 2.58026 358 ft 3 kts 343°
2026-05-05 21:22 49.00127 2.58021 354 ft 5 kts 357°
2026-05-05 21:22 49.00159 2.58017 354 ft 0 kts 355°
2026-05-05 21:22 49.00161 2.58017 356 ft 0 kts 355°